Вернуться в каталог

STARLINK-30760

АктивенСвязьVLEO
NORAD 58187·PAYLOAD·🇺🇸 United States

Запущен Oct 30, 2023 с Cape Canaveral Space Force Station

Loading…

Ближайшие Пролёты (ближайшие 24 часа)

TLE

СвежийSource: CelesTrak SupGP

Эпоха: Sep 15, 2026, 02:30 UTC

1 58187C 23167N   26258.10465278  .00025351  00000+0  91841-3 0  2583
2 58187  43.0026 153.7367 0001342 276.5713  62.0783 15.27558468    17

Отслеживайте STARLINK-30760 в реальном времени с AllMySat

Download on the App Store